Blattenbach Aussen Messungen

Zurück zum Überblick

Zeitpunkt Temperatur Temperatur Kabelsensor Luftfeuchte
20.11.2018 19:51:13 0,0 C 6,4 C 78,0%
20.11.2018 19:44:12 0,0 C 6,4 C 79,0%
20.11.2018 19:37:11 0,0 C 6,4 C 79,0%
20.11.2018 19:30:11 0,0 C 6,4 C 79,0%
20.11.2018 19:23:12 0,0 C 6,4 C 79,0%
20.11.2018 19:16:13 0,0 C 6,5 C 79,0%
20.11.2018 19:09:12 0,0 C 6,5 C 79,0%
20.11.2018 19:02:11 0,0 C 6,5 C 79,0%
20.11.2018 18:55:14 0,2 C 6,5 C 78,0%
20.11.2018 18:47:56 0,2 C 6,5 C 78,0%
20.11.2018 18:40:57 0,1 C 6,5 C 79,0%
20.11.2018 18:33:57 0,2 C 6,5 C 78,0%
20.11.2018 18:26:56 0,3 C 6,5 C 78,0%
20.11.2018 18:19:57 0,3 C 6,5 C 78,0%
20.11.2018 18:12:56 0,4 C 6,6 C 78,0%
20.11.2018 18:05:58 0,4 C 6,6 C 78,0%
20.11.2018 17:58:55 0,5 C 6,6 C 77,0%
20.11.2018 17:51:57 0,6 C 6,6 C 77,0%
20.11.2018 17:50:13 0,7 C 6,6 C 77,0%
20.11.2018 17:37:56 0,8 C 6,6 C 77,0%
20.11.2018 17:30:56 0,8 C 6,6 C 77,0%
20.11.2018 17:29:12 1,0 C 6,6 C 76,0%
20.11.2018 17:17:00 1,1 C 6,7 C 76,0%
20.11.2018 17:09:59 1,2 C 6,7 C 75,0%
20.11.2018 17:02:56 1,5 C 6,7 C 75,0%
20.11.2018 16:55:58 1,7 C 6,7 C 74,0%
20.11.2018 16:48:57 1,9 C 6,7 C 74,0%
20.11.2018 16:47:13 2,3 C 6,7 C 73,0%
20.11.2018 16:34:57 2,6 C 6,7 C 73,0%
20.11.2018 16:27:57 2,9 C 6,7 C 73,0%
20.11.2018 16:26:13 3,0 C 6,8 C 73,0%
20.11.2018 16:13:58 3,4 C 6,8 C 72,0%
20.11.2018 16:06:57 3,6 C 6,8 C 72,0%
20.11.2018 15:59:57 3,8 C 6,8 C 72,0%
20.11.2018 15:52:55 3,8 C 6,7 C 72,0%
20.11.2018 15:45:56 3,8 C 6,7 C 72,0%
20.11.2018 15:44:08 3,7 C 6,7 C 72,0%
20.11.2018 15:31:56 3,6 C 6,7 C 72,0%
20.11.2018 15:24:55 3,7 C 6,7 C 72,0%
20.11.2018 15:17:58 3,9 C 6,6 C 71,0%
20.11.2018 15:10:55 4,3 C 6,6 C 70,0%
20.11.2018 15:03:57 4,5 C 6,6 C 71,0%
20.11.2018 14:56:56 4,5 C 6,6 C 71,0%
20.11.2018 14:49:58 4,6 C 6,5 C 71,0%
20.11.2018 14:42:59 4,6 C 6,5 C 71,0%
20.11.2018 14:35:56 4,4 C 6,5 C 71,0%
20.11.2018 14:28:57 4,3 C 6,5 C 71,0%
20.11.2018 14:21:57 4,4 C 6,5 C 72,0%
20.11.2018 14:14:58 4,2 C 6,5 C 72,0%
20.11.2018 14:07:55 3,9 C 6,5 C 72,0%